This demonstration page uses our WeatherBlox Daily Observations layout. Learn more.

Left ArrowRight Arrow

41.86663, -103.66717

Hourly Observations for September 28, 2020

Temp ( °F °C ) Dew Point ( °F °C ) Humidity (%) Winds ( mph kmh ) Pressure ( in mb ) Visibility ( mi km ) Precip ( " mm )
12:53 am 00:53 Clear 36 2.2 31 -0.6 82 82 NW 8 13 30.32 1027 10 16.0934 0 0
1:53 am 01:53 Clear 36 2.2 32 0 86 86 WNW 9 15 30.33 1027 10 16.0934 0 0
2:53 am 02:53 Clear 34 1.1 31 -0.6 89 89 NW 7 11 30.34 1027 10 16.0934 0 0
3:53 am 03:53 Clear 33 0.6 31 -0.6 92 92 NW 6 9 30.34 1027 10 16.0934 0 0
4:53 am 04:53 Clear 34 1.1 31 -0.6 89 89 NW 7 11 30.35 1028 10 16.0934 0 0
5:53 am 05:53 Clear 33 0.6 31 -0.6 92 92 NW 6 9 30.37 1029 10 16.0934 0 0
6:53 am 06:53 Mostly Sunny 35 1.7 32 0 89 89 WNW 7 11 30.4 1029 10 16.0934 0 0
7:53 am 07:53 Sunny 39 3.9 33 0.6 79 79 WNW 9 15 30.4 1030 10 16.0934 0 0
8:53 am 08:53 Sunny 46 7.8 33 0.6 61 61 WNW 13 20 30.39 1029 10 16.0934 0 0
9:53 am 09:53 Sunny 52 11.1 33 0.6 49 49 WNW 12 19 30.39 1029 10 16.0934 0 0
10:53 am 10:53 Mostly Sunny 58 14.4 30 -1.1 35 35 WNW 15 24 30.35 1028 10 16.0934 0 0
11:53 am 11:53 Partly Cloudy 61 16.1 26 -3.3 26 26 WNW 20 31 30.33 1027 10 16.0934 0 0
12:53 pm 12:53 Sunny 64 17.8 24 -4.4 22 22 NNW 21 33 30.3 1026 10 16.0934 0 0
1:53 pm 13:53 Sunny 65 18.3 22 -5.6 19 19 NW 20 31 30.26 1025 10 16.0934 0 0
2:53 pm 14:53 Sunny 66 18.9 21 -6.1 18 18 NW 22 35 30.24 1024 10 16.0934 0 0
3:53 pm 15:53 Sunny 66 18.9 21 -6.1 18 18 NNW 25 41 30.22 1024 10 16.0934 0 0
4:53 pm 16:53 Sunny 65 18.3 19 -7.2 17 17 NNW 22 35 30.22 1023 10 16.0934 0 0
5:53 pm 17:53 Sunny 63 17.2 20 -6.7 19 19 NW 17 28 30.23 1024 10 16.0934 0 0
6:53 pm 18:53 Clear 57 13.9 18 -7.8 22 22 NNW 10 17 30.23 1024 10 16.0934 0 0
7:53 pm 19:53 Clear 49 9.4 20 -6.7 32 32 NW 7 11 30.24 1024 10 16.0934 0 0
8:53 pm 20:53 Clear 48 8.9 20 -6.7 33 33 WNW 5 7 30.24 1024 10 16.0934 0 0
9:53 pm 21:53 Clear 45 7.2 23 -5 42 42 WNW 5 7 30.23 1024 10 16.0934 0 0
10:53 pm 22:53 Clear 42 5.6 22 -5.6 45 45 NW 7 11 30.22 1023 10 16.0934 0 0
11:53 pm 23:53 Clear 42 5.6 23 -5 47 47 NNW 9 15 30.2 1023 10 16.0934 0 0

Powered by AerisWeather